Home   Weather   Vancouver   Past weeks

Flag for Canada Past Weather in Vancouver, British Columbia, Canada — Yesterday and Last 2 Weeks

Now
46 °F

Sprinkles. Mostly cloudy.


Feels Like: 41 °F
Forecast: 47 / 58 °F
Wind: 10 mph from East

Location: Vancouver International Airport

Current Time: Apr 24, 2017 at 4:45:24 am

Latest Report: Apr 24, 2017 at 4:00 am


Visibility: 8 mi

Pressure: 29.75 "Hg

Humidity: 93%

Dew Point: 45 °F

Location of VancouverLocation

Past Weather in Vancouver — Graph

°F

Vancouver Temperature Yesterday

Maximum temperature yesterday: 55 °F (at 2:00 pm)
Minimum temperature yesterday: 48 °F (at 3:00 am)
Average temperature yesterday: 50 °F

High & Low Weather Summary for the Past Weeks

 TemperatureHumidityPressure
High57 °F (Apr 21, 5:00 pm)100% (Apr 18, 9:00 am)30.42 "Hg (Apr 18, 9:00 am)
Low37 °F (Apr 9, 6:00 am)47% (Apr 9, 3:05 pm)29.64 "Hg (Apr 12, 10:00 pm)
Average49 °F80%29.97 "Hg
* Reported Apr 9 3:00 am — Apr 24 3:40 am, Vancouver, Weather by CustomWeather, © 2017

Note: Actual official high and low records may vary slightly from our data, if they occured in-between our weather recording intervals... More about our weather records

Advertising

Vancouver Weather History for the Previous 24 Hours

Scroll right to see more
 ConditionsComfort  
Time TempWeatherWind HumidityBarometerVisibility
3:40 am
Mon, Apr 24
46 °FSprinkles. Overcast.8 mph100%29.75 "Hg8 mi
3:00 am48 °FSprinkles. Mostly cloudy.9 mph94%29.75 "Hg8 mi
2:33 am46 °FSprinkles. Overcast.8 mph100%29.76 "Hg8 mi
2:00 am48 °FSprinkles. Low clouds.8 mph94%29.76 "Hg8 mi
1:00 am48 °FSprinkles. Low clouds.10 mph94%29.77 "Hg10 mi
12:00 am48 °FSprinkles. Mostly cloudy.10 mph94%29.77 "Hg8 mi
11:00 pm
Sun, Apr 23
48 °FSprinkles. Mostly cloudy.9 mph94%29.77 "Hg10 mi
10:00 pm48 °FSprinkles. Mostly cloudy.8 mph94%29.77 "Hg12 mi
9:55 pm48 °FSprinkles. Mostly cloudy.8 mph94%29.77 "Hg12 mi
9:00 pm48 °FMostly cloudy.10 mph94%29.77 "Hg15 mi
8:53 pm48 °FMostly cloudy.10 mph94%29.77 "Hg12 mi
8:33 pm48 °FSprinkles. Passing clouds.13 mph94%29.76 "Hg12 mi
8:14 pm50 °FPartly sunny.13 mph88%29.76 "Hg15 mi
8:00 pm50 °FSprinkles. Mostly cloudy.10 mph88%29.77 "Hg10 mi
7:15 pm50 °FSprinkles. Mostly cloudy.8 mph94%29.77 "Hg8 mi
7:00 pm50 °FSprinkles. Mostly cloudy.13 mph88%29.77 "Hg10 mi
6:00 pm50 °FSprinkles. Mostly cloudy.14 mph88%29.78 "Hg12 mi
5:00 pm52 °FSprinkles. Mostly cloudy.14 mph82%29.79 "Hg12 mi
4:28 pm52 °FSprinkles. Mostly cloudy.18 mph82%29.79 "Hg15 mi
4:00 pm54 °FMore clouds than sun.16 mph72%29.80 "Hg20 mi
3:00 pm55 °FCloudy.17 mph67%29.80 "Hg20 mi
2:00 pm55 °FMostly cloudy.15 mph72%29.82 "Hg20 mi
1:00 pm54 °FMostly cloudy.13 mph72%29.84 "Hg20 mi
12:00 pm54 °FCloudy.15 mph77%29.86 "Hg20 mi
11:00 am52 °FCloudy.13 mph82%29.87 "Hg20 mi
10:00 am50 °FCloudy.10 mph88%29.88 "Hg20 mi
9:00 am48 °FMostly cloudy.12 mph94%29.88 "Hg15 mi
8:00 am48 °FMostly cloudy.13 mph94%29.88 "Hg15 mi
7:00 am48 °FCloudy.9 mph94%29.88 "Hg15 mi
6:00 am48 °FSprinkles. Mostly cloudy.10 mph94%29.89 "Hg12 mi
5:00 am48 °FMostly cloudy.9 mph94%29.89 "Hg12 mi
4:00 am48 °FPassing clouds.8 mph94%29.91 "Hg12 mi
Weather by CustomWeather, © 2017

See weather overviewHow to use our weather pages